Погода в Ханмере-Спрингсе

Новая Зеландия     42°31′22″S   172°49′45″E
темп.,
°C
ветер,
м/с
пор.,
м/с
влажн.,
%
обл.,
%
осадки,
мм/ч
давл.,
гПа
погр.,
м
18 января, пн
пн1801:00+8сз11227726 1.2 9931733
04:00+9зсз10217726 0.3 9941686
07:00+7зсз4148447 0.9 9961543
10:00+8зсз6157382 0.1 9991639
13:00+13зсз8164881 0.2 9992040
16:00+13сз8185754 0.1 9981589
19:00+9сз6208441 4.8 9961831
22:00+8зсз9207738 0.1 9971052
19 января, вт
вт1901:00+7сз4178319 0.1 998978
04:00+7ссз2138091 0.0 997784
07:00+9ссз4197595 0.0 9961581
10:00+14сз12266110 0.1 9921628
13:00+15сз1325716 1.3 9881735
16:00+7зсз3159068 7.4 9881200
19:00+6сз8198784 13.9 9891722
22:00+4сз4169491 3.9 9901530
20 января, ср
ср2001:00+4сз8189095 7.8 9891579
04:00+4сз13249074 4.1 9881607
07:00+4зсз6218663 6.2 9881837
10:00+6зсз11227869 0.1 9891759
13:00+6сз12228078 1.0 9881404
16:00+9зсз13216419 0.4 9871274
19:00+8сз6177236 0.9 9891230
22:00+5сз9208470 0.6 9921313
21 января, чт
чт2101:00+5зсз8198578 1.0 9931237
04:00+4сз5158778 0.3 994945
07:00+4сз4148978 1.4 996918
10:00+8сз41273100 0.5 9981173
13:00+10зсз5126168 0.7 10001428
16:00+11зсз48523 0.1 10011159
19:00+10сз35542 0.1 1003971
22:00+5сз228352 0.0 100651
22 января, пт
пт2201:00+4сз228750 0.0 100854
04:00+5сз22849 0.0 100875
07:00+5сз229111 0.0 100970
10:00+12зсз235767 0.0 10101056
13:00+15зсз244783 0.0 10101490
16:00+16зсз3550100 0.0 10091502
19:00+15зсз375464 0.0 10091257
22:00+9сз338433 0.0 101084